GORIZONT 31 [-]

Last updated on Wed Jun 28 2023 00:02:55 GMT+0000 (Coordinated Universal Time)

1 23775U 96005A 23177.71722355 .00000025 00000+0 00000+0 0 9991 2 23775 14.4941 2.6642 0019166 206.0777 152.6250 0.99898160100193
UTC large
Height (km)
Speed (km/s)
/
Latitude / Longitude
Inclination (degrees)
Orbital Period (minutes)
Azimuth
Elevation
Range (km)
Doppler Factor

Next 0 passes for location: London (51.5072 / 0.1276)

Sorry there are no passes over London.